^^

..:: Storico WU ::..




Lo storico viene creato da WUnderground con i dati che la stazione Meteomincio invia al loro server. L' aggiornamento viene fatto ogni 5 minuti circa, tuttavia possono esserci intervalli pił ampi a causa di errori, interruzioni di servizio o problemi nell' invio tramite FTP.


Storico stazione MeteoMincio
Giorno Sommario per Novembre 12, 2022 Unità:  Inglese    Metrico   Entrambi
Giorno Settimana Mese Anno
  Max: Min: Media:
Temperatura: 55.4 °F 46.4 °F 50.4 °F
Dew Point: 53.6 °F 44.6 °F 49.1 °F
Umidità: 98% 89% 96%
Velocità vento: 9.9mph 0mph 4mph
Raffica: 14.3mph - -
Direzione- - West
Pressione: 30.5 in 30.3 in -
Precipitazioni: 0 in    
 
 
Tabulato Dati per Novembre 12, 2022
Ora Temperatura Dew Point Pressione Direzione Velocità vento Raffica Umidità Intensità pioggia (oraria) Info solare Situazione
00:04 46.4 °F 46.4 °F 30.5 in WSW 3.1 mph 3.7 mph 97% 0.01 in 0.00 W/m2 unknown
00:09 46.4 °F 46.4 °F 30.5 in West 3.1 mph 5 mph 97% 0 in 0.00 W/m2 unknown
00:14 46.4 °F 44.6 °F 30.5 in WSW 3.7 mph 5 mph 97% 0 in 0.00 W/m2 unknown
00:19 46.4 °F 44.6 °F 30.5 in WSW 3.7 mph 5 mph 97% 0 in 0.00 W/m2 unknown
00:24 46.4 °F 44.6 °F 30.5 in West 4.3 mph 6.2 mph 97% 0 in 0.00 W/m2 unknown
00:29 46.4 °F 44.6 °F 30.5 in West 4.3 mph 6.2 mph 97% 0 in 0.00 W/m2 unknown
00:34 46.4 °F 44.6 °F 30.5 in West 4.3 mph 5 mph 97% 0 in 0.00 W/m2 unknown
00:39 46.4 °F 44.6 °F 30.5 in West 4.3 mph 5 mph 97% 0 in 0.00 W/m2 unknown
00:44 46.4 °F 44.6 °F 30.5 in West 4.3 mph 5 mph 97% 0 in 0.00 W/m2 unknown
00:49 46.4 °F 44.6 °F 30.5 in West 3.7 mph 5 mph 97% 0 in 0.00 W/m2 unknown
00:54 46.4 °F 44.6 °F 30.5 in West 3.1 mph 3.7 mph 97% 0 in 0.00 W/m2 unknown
00:59 46.4 °F 44.6 °F 30.5 in WNW 3.1 mph 5 mph 97% 0 in 0.00 W/m2 unknown
01:04 46.4 °F 44.6 °F 30.5 in WNW 5.6 mph 6.8 mph 97% 0 in 0.00 W/m2 unknown
01:09 46.4 °F 44.6 °F 30.5 in West 5 mph 6.8 mph 97% 0 in 0.00 W/m2 unknown
01:14 46.4 °F 46.4 °F 30.5 in West 3.7 mph 6.2 mph 97% 0 in 0.00 W/m2 unknown
01:19 46.4 °F 46.4 °F 30.5 in West 5 mph 6.8 mph 97% 0 in 0.00 W/m2 unknown
01:24 46.4 °F 46.4 °F 30.5 in West 5 mph 6.8 mph 97% 0 in 0.00 W/m2 unknown
01:29 46.4 °F 46.4 °F 30.5 in West 4.3 mph 6.8 mph 97% 0 in 0.00 W/m2 unknown
01:34 46.4 °F 46.4 °F 30.5 in West 3.1 mph 6.2 mph 97% 0 in 0.00 W/m2 unknown
01:39 46.4 °F 46.4 °F 30.5 in West 3.7 mph 5 mph 97% 0 in 0.00 W/m2 unknown
01:44 48.2 °F 46.4 °F 30.5 in West 3.7 mph 5 mph 97% 0 in 0.00 W/m2 unknown
01:49 48.2 °F 46.4 °F 30.5 in West 3.1 mph 3.7 mph 97% 0 in 0.00 W/m2 unknown
01:54 48.2 °F 46.4 °F 30.5 in West 3.1 mph 3.7 mph 97% 0 in 0.00 W/m2 unknown
01:59 48.2 °F 46.4 °F 30.5 in WSW 4.3 mph 5 mph 97% 0 in 0.00 W/m2 unknown
02:04 48.2 °F 46.4 °F 30.5 in WSW 5 mph 6.2 mph 97% 0 in 0.00 W/m2 unknown
02:09 48.2 °F 46.4 °F 30.5 in WSW 5 mph 6.2 mph 97% 0 in 0.00 W/m2 unknown
02:14 48.2 °F 46.4 °F 30.5 in WSW 4.3 mph 6.2 mph 97% 0 in 0.00 W/m2 unknown
02:19 46.4 °F 46.4 °F 30.5 in West 4.3 mph 6.2 mph 97% 0 in 0.00 W/m2 unknown
02:24 46.4 °F 46.4 °F 30.5 in West 4.3 mph 6.2 mph 97% 0 in 0.00 W/m2 unknown
02:29 46.4 °F 46.4 °F 30.5 in West 3.7 mph 6.2 mph 97% 0 in 0.00 W/m2 unknown
02:34 46.4 °F 46.4 °F 30.5 in WSW 4.3 mph 6.2 mph 97% 0 in 0.00 W/m2 unknown
02:39 46.4 °F 46.4 °F 30.5 in WSW 3.7 mph 6.2 mph 97% 0 in 0.00 W/m2 unknown
02:44 46.4 °F 46.4 °F 30.5 in West 2.5 mph 3.7 mph 97% 0 in 0.00 W/m2 unknown
02:49 46.4 °F 46.4 °F 30.5 in West 3.1 mph 5 mph 97% 0 in 0.00 W/m2 unknown
02:54 46.4 °F 46.4 °F 30.5 in West 3.1 mph 5 mph 97% 0 in 0.00 W/m2 unknown
02:59 48.2 °F 46.4 °F 30.5 in West 3.7 mph 5 mph 97% 0 in 0.00 W/m2 unknown
03:04 48.2 °F 46.4 °F 30.5 in West 3.7 mph 5 mph 97% 0 in 0.00 W/m2 unknown
03:09 48.2 °F 46.4 °F 30.5 in West 3.7 mph 5 mph 97% 0 in 0.00 W/m2 unknown
03:14 48.2 °F 46.4 °F 30.5 in WSW 3.7 mph 5 mph 98% 0 in 0.00 W/m2 unknown
03:19 48.2 °F 46.4 °F 30.5 in West 3.7 mph 5 mph 97% 0 in 0.00 W/m2 unknown
03:24 48.2 °F 46.4 °F 30.5 in West 3.1 mph 5 mph 97% 0 in 0.00 W/m2 unknown
03:29 48.2 °F 46.4 °F 30.5 in West 3.1 mph 3.7 mph 97% 0 in 0.00 W/m2 unknown
03:34 48.2 °F 46.4 °F 30.5 in West 4.3 mph 6.2 mph 98% 0 in 0.00 W/m2 unknown
03:39 48.2 °F 46.4 °F 30.5 in West 3.1 mph 6.2 mph 98% 0 in 0.00 W/m2 unknown
03:44 48.2 °F 46.4 °F 30.5 in West 6.2 mph 8.1 mph 98% 0 in 0.00 W/m2 unknown
03:49 48.2 °F 46.4 °F 30.5 in West 5 mph 8.1 mph 98% 0 in 0.00 W/m2 unknown
03:54 48.2 °F 46.4 °F 30.5 in West 5 mph 6.8 mph 98% 0 in 0.00 W/m2 unknown
03:59 48.2 °F 48.2 °F 30.5 in West 4.3 mph 6.8 mph 98% 0 in 0.00 W/m2 unknown
04:04 48.2 °F 48.2 °F 30.5 in West 5.6 mph 6.8 mph 98% 0 in 0.00 W/m2 unknown
04:09 48.2 °F 48.2 °F 30.5 in West 6.2 mph 6.8 mph 98% 0 in 0.00 W/m2 unknown
04:14 48.2 °F 46.4 °F 30.5 in West 4.3 mph 6.8 mph 97% 0 in 0.00 W/m2 unknown
04:19 48.2 °F 46.4 °F 30.5 in West 4.3 mph 6.2 mph 97% 0 in 0.00 W/m2 unknown
04:24 48.2 °F 46.4 °F 30.5 in West 4.3 mph 6.2 mph 97% 0 in 0.00 W/m2 unknown
04:29 48.2 °F 46.4 °F 30.5 in West 4.3 mph 6.2 mph 97% 0 in 0.00 W/m2 unknown
04:34 48.2 °F 46.4 °F 30.5 in West 5 mph 6.2 mph 97% 0 in 0.00 W/m2 unknown
04:39 48.2 °F 46.4 °F 30.5 in West 5.6 mph 6.8 mph 97% 0 in 0.00 W/m2 unknown
04:44 48.2 °F 46.4 °F 30.5 in West 5.6 mph 6.8 mph 98% 0 in 0.00 W/m2 unknown
04:49 48.2 °F 46.4 °F 30.5 in West 5 mph 6.8 mph 98% 0 in 0.00 W/m2 unknown
04:54 48.2 °F 46.4 °F 30.5 in WSW 6.2 mph 8.1 mph 98% 0 in 0.00 W/m2 unknown
04:59 48.2 °F 46.4 °F 30.5 in WSW 5 mph 8.1 mph 98% 0 in 0.00 W/m2 unknown
05:04 48.2 °F 46.4 °F 30.5 in WSW 3.1 mph 8.1 mph 98% 0 in 0.00 W/m2 unknown
05:09 48.2 °F 46.4 °F 30.5 in West 5.6 mph 8.1 mph 98% 0 in 0.00 W/m2 unknown
05:14 48.2 °F 46.4 °F 30.5 in West 6.2 mph 8.1 mph 98% 0 in 0.00 W/m2 unknown
05:19 48.2 °F 46.4 °F 30.5 in West 7.5 mph 9.3 mph 98% 0 in 0.00 W/m2 unknown
05:24 48.2 °F 46.4 °F 30.5 in West 7.5 mph 9.3 mph 98% 0 in 0.00 W/m2 unknown
05:29 48.2 °F 48.2 °F 30.5 in WNW 6.2 mph 8.7 mph 98% 0 in 0.00 W/m2 unknown
05:34 48.2 °F 48.2 °F 30.5 in West 5.6 mph 8.1 mph 98% 0 in 0.00 W/m2 unknown
05:39 48.2 °F 48.2 °F 30.5 in West 5.6 mph 8.1 mph 98% 0 in 0.00 W/m2 unknown
05:44 48.2 °F 48.2 °F 30.5 in West 5 mph 6.8 mph 98% 0 in 0.00 W/m2 unknown
05:49 48.2 °F 48.2 °F 30.5 in West 5 mph 6.2 mph 98% 0 in 0.00 W/m2 unknown
05:54 48.2 °F 48.2 °F 30.5 in West 5 mph 6.2 mph 98% 0 in 0.00 W/m2 unknown
05:59 48.2 °F 48.2 °F 30.5 in West 5 mph 6.8 mph 98% 0 in 0.00 W/m2 unknown
06:04 48.2 °F 48.2 °F 30.5 in West 4.3 mph 6.8 mph 98% 0 in 0.00 W/m2 unknown
06:09 48.2 °F 48.2 °F 30.5 in West 5 mph 6.8 mph 98% 0 in 0.00 W/m2 unknown
06:14 48.2 °F 48.2 °F 30.5 in West 5 mph 6.8 mph 98% 0 in 0.00 W/m2 unknown
06:19 48.2 °F 48.2 °F 30.5 in West 5 mph 6.8 mph 98% 0 in 0.00 W/m2 unknown
06:24 48.2 °F 48.2 °F 30.5 in WSW 6.2 mph 8.1 mph 98% 0 in 0.00 W/m2 unknown
06:29 48.2 °F 48.2 °F 30.5 in WSW 5.6 mph 9.3 mph 98% 0 in 0.00 W/m2 unknown
06:34 48.2 °F 48.2 °F 30.5 in West 5 mph 8.7 mph 98% 0 in 0.00 W/m2 unknown
06:39 48.2 °F 48.2 °F 30.5 in West 6.2 mph 10.6 mph 98% 0 in 0.00 W/m2 unknown
06:44 48.2 °F 48.2 °F 30.5 in WSW 6.2 mph 9.9 mph 98% 0 in 0.00 W/m2 unknown
06:49 48.2 °F 48.2 °F 30.5 in WSW 6.8 mph 9.3 mph 98% 0 in 0.00 W/m2 unknown
06:54 48.2 °F 48.2 °F 30.5 in West 6.2 mph 9.3 mph 98% 0 in 0.00 W/m2 unknown
06:59 48.2 °F 48.2 °F 30.5 in West 6.2 mph 9.3 mph 98% 0 in 0.00 W/m2 unknown
07:04 48.2 °F 48.2 °F 30.5 in West 6.2 mph 9.3 mph 98% 0 in 0.00 W/m2 unknown
07:09 48.2 °F 48.2 °F 30.5 in WNW 5.6 mph 8.7 mph 98% 0 in 0.00 W/m2 unknown
07:14 48.2 °F 48.2 °F 30.5 in West 6.2 mph 8.1 mph 98% 0 in 0.00 W/m2 unknown
07:19 48.2 °F 48.2 °F 30.5 in West 6.2 mph 8.1 mph 98% 0 in 0.00 W/m2 unknown
07:24 48.2 °F 48.2 °F 30.5 in West 7.5 mph 8.7 mph 98% 0 in 0.00 W/m2 unknown
07:29 48.2 °F 46.4 °F 30.5 in West 8.1 mph 10.6 mph 98% 0 in 7.00 W/m2 unknown
07:34 48.2 °F 48.2 °F 30.5 in WSW 6.8 mph 9.9 mph 98% 0 in 11.00 W/m2 unknown
07:39 48.2 °F 48.2 °F 30.5 in WSW 6.2 mph 9.3 mph 98% 0 in 14.00 W/m2 unknown
07:44 48.2 °F 48.2 °F 30.5 in WSW 5.6 mph 8.1 mph 98% 0 in 16.00 W/m2 unknown
07:49 48.2 °F 48.2 °F 30.5 in West 6.8 mph 8.1 mph 98% 0 in 18.00 W/m2 unknown
07:54 48.2 °F 48.2 °F 30.5 in West 6.2 mph 9.3 mph 98% 0 in 19.00 W/m2 unknown
07:59 48.2 °F 48.2 °F 30.5 in West 6.2 mph 8.7 mph 98% 0 in 23.00 W/m2 unknown
08:04 48.2 °F 48.2 °F 30.5 in West 6.2 mph 9.3 mph 98% 0 in 28.00 W/m2 unknown
08:09 48.2 °F 48.2 °F 30.5 in West 6.8 mph 10.6 mph 98% 0 in 30.00 W/m2 unknown
08:14 48.2 °F 48.2 °F 30.5 in West 8.1 mph 11.8 mph 98% 0 in 32.00 W/m2 unknown
08:19 48.2 °F 48.2 °F 30.5 in West 8.1 mph 11.8 mph 98% 0 in 33.00 W/m2 unknown
08:24 48.2 °F 48.2 °F 30.5 in West 8.1 mph 11.8 mph 98% 0 in 39.00 W/m2 unknown
08:29 48.2 °F 48.2 °F 30.5 in West 6.2 mph 9.9 mph 98% 0 in 39.00 W/m2 unknown
08:34 48.2 °F 48.2 °F 30.5 in West 6.2 mph 8.7 mph 98% 0 in 47.00 W/m2 unknown
08:39 48.2 °F 48.2 °F 30.5 in West 7.5 mph 9.3 mph 98% 0 in 54.00 W/m2 unknown
08:44 48.2 °F 48.2 °F 30.5 in West 6.2 mph 9.3 mph 98% 0 in 58.00 W/m2 unknown
08:49 48.2 °F 48.2 °F 30.5 in West 5 mph 6.8 mph 98% 0 in 60.00 W/m2 unknown
08:54 48.2 °F 48.2 °F 30.5 in WNW 6.2 mph 6.8 mph 98% 0 in 62.00 W/m2 unknown
08:59 48.2 °F 48.2 °F 30.5 in West 6.8 mph 9.3 mph 98% 0 in 65.00 W/m2 unknown
09:04 48.2 °F 48.2 °F 30.5 in West 6.2 mph 8.7 mph 98% 0 in 72.00 W/m2 unknown
09:09 50 °F 48.2 °F 30.5 in West 8.1 mph 11.2 mph 98% 0 in 90.00 W/m2 unknown
09:14 50 °F 48.2 °F 30.5 in West 8.1 mph 11.8 mph 98% 0 in 91.00 W/m2 unknown
09:19 50 °F 48.2 °F 30.5 in West 6.8 mph 11.8 mph 98% 0 in 88.00 W/m2 unknown
09:24 50 °F 48.2 °F 30.5 in West 5 mph 6.2 mph 98% 0 in 83.00 W/m2 unknown
09:29 50 °F 50 °F 30.5 in West 3.7 mph 6.8 mph 98% 0 in 83.00 W/m2 unknown
09:34 50 °F 50 °F 30.5 in West 5 mph 6.8 mph 98% 0 in 84.00 W/m2 unknown
09:39 50 °F 50 °F 30.5 in West 5 mph 6.8 mph 98% 0 in 100.00 W/m2 unknown
09:44 50 °F 50 °F 30.5 in West 7.5 mph 9.3 mph 98% 0 in 114.00 W/m2 unknown
09:49 50 °F 50 °F 30.5 in West 6.8 mph 8.7 mph 98% 0 in 125.00 W/m2 unknown
09:54 50 °F 50 °F 30.4 in West 6.2 mph 9.3 mph 98% 0 in 134.00 W/m2 unknown
09:59 50 °F 50 °F 30.5 in West 6.2 mph 8.7 mph 98% 0 in 139.00 W/m2 unknown
10:04 50 °F 50 °F 30.5 in West 6.2 mph 9.3 mph 98% 0 in 139.00 W/m2 unknown
10:09 50 °F 50 °F 30.5 in West 6.2 mph 8.7 mph 98% 0 in 134.00 W/m2 unknown
10:14 51.8 °F 50 °F 30.5 in West 6.2 mph 11.2 mph 98% 0 in 128.00 W/m2 unknown
10:19 51.8 °F 50 °F 30.5 in West 8.7 mph 11.8 mph 98% 0 in 137.00 W/m2 unknown
10:24 51.8 °F 50 °F 30.5 in West 6.8 mph 11.8 mph 98% 0 in 137.00 W/m2 unknown
10:29 50 °F 50 °F 30.5 in West 6.2 mph 10.6 mph 98% 0 in 137.00 W/m2 unknown
10:34 51.8 °F 50 °F 30.5 in West 6.2 mph 9.9 mph 98% 0 in 135.00 W/m2 unknown
10:39 51.8 °F 50 °F 30.5 in West 7.5 mph 10.6 mph 98% 0 in 141.00 W/m2 unknown
10:44 51.8 °F 50 °F 30.4 in West 7.5 mph 10.6 mph 98% 0 in 141.00 W/m2 unknown
10:49 51.8 °F 50 °F 30.4 in West 7.5 mph 9.9 mph 98% 0 in 130.00 W/m2 unknown
10:54 51.8 °F 50 °F 30.4 in West 6.8 mph 9.3 mph 98% 0 in 114.00 W/m2 unknown
10:59 51.8 °F 50 °F 30.4 in WNW 8.7 mph 11.8 mph 98% 0 in 125.00 W/m2 unknown
11:04 51.8 °F 50 °F 30.4 in WNW 8.7 mph 13 mph 98% 0 in 132.00 W/m2 unknown
11:09 51.8 °F 50 °F 30.4 in WNW 8.1 mph 13 mph 98% 0 in 111.00 W/m2 unknown
11:14 51.8 °F 50 °F 30.4 in WNW 9.3 mph 11.8 mph 98% 0 in 104.00 W/m2 unknown
11:19 51.8 °F 51.8 °F 30.4 in WNW 7.5 mph 11.8 mph 98% 0 in 118.00 W/m2 unknown
11:24 51.8 °F 50 °F 30.4 in West 8.7 mph 10.6 mph 98% 0 in 128.00 W/m2 unknown
11:29 51.8 °F 50 °F 30.4 in WNW 9.3 mph 11.8 mph 98% 0 in 139.00 W/m2 unknown
11:34 51.8 °F 51.8 °F 30.4 in WNW 8.1 mph 11.8 mph 98% 0 in 176.00 W/m2 unknown
11:39 51.8 °F 51.8 °F 30.4 in West 7.5 mph 10.6 mph 98% 0 in 195.00 W/m2 unknown
11:44 51.8 °F 51.8 °F 30.4 in WNW 6.2 mph 9.9 mph 98% 0 in 213.00 W/m2 unknown
11:49 51.8 °F 51.8 °F 30.4 in West 8.7 mph 11.8 mph 98% 0 in 258.00 W/m2 unknown
11:54 51.8 °F 51.8 °F 30.4 in West 9.9 mph 14.3 mph 98% 0 in 255.00 W/m2 unknown
11:59 51.8 °F 51.8 °F 30.4 in West 9.3 mph 14.3 mph 98% 0 in 287.00 W/m2 unknown
12:04 51.8 °F 51.8 °F 30.4 in West 8.1 mph 14.3 mph 98% 0 in 241.00 W/m2 unknown
12:09 53.6 °F 51.8 °F 30.4 in WNW 8.1 mph 11.8 mph 98% 0 in 241.00 W/m2 unknown
12:14 53.6 °F 51.8 °F 30.4 in West 9.3 mph 13 mph 98% 0 in 225.00 W/m2 unknown
12:19 53.6 °F 51.8 °F 30.4 in West 6.2 mph 13 mph 97% 0 in 214.00 W/m2 unknown
12:24 53.6 °F 51.8 °F 30.4 in West 7.5 mph 9.9 mph 97% 0 in 202.00 W/m2 unknown
12:29 53.6 °F 51.8 °F 30.4 in West 7.5 mph 10.6 mph 96% 0 in 188.00 W/m2 unknown
12:34 53.6 °F 51.8 °F 30.4 in West 8.1 mph 10.6 mph 96% 0 in 172.00 W/m2 unknown
12:39 53.6 °F 51.8 °F 30.4 in West 8.1 mph 10.6 mph 95% 0 in 179.00 W/m2 unknown
12:44 53.6 °F 53.6 °F 30.4 in West 8.1 mph 11.8 mph 95% 0 in 183.00 W/m2 unknown
12:49 53.6 °F 53.6 °F 30.4 in West 6.8 mph 11.8 mph 95% 0 in 186.00 W/m2 unknown
12:54 55.4 °F 53.6 °F 30.4 in West 6.8 mph 11.8 mph 94% 0 in 186.00 W/m2 unknown
12:59 55.4 °F 53.6 °F 30.4 in West 7.5 mph 11.8 mph 94% 0 in 178.00 W/m2 unknown
13:04 55.4 °F 53.6 °F 30.4 in West 7.5 mph 11.8 mph 93% 0 in 162.00 W/m2 unknown
13:09 55.4 °F 53.6 °F 30.4 in West 8.1 mph 11.8 mph 93% 0 in 151.00 W/m2 unknown
13:14 55.4 °F 53.6 °F 30.4 in West 6.8 mph 11.8 mph 92% 0 in 148.00 W/m2 unknown
13:19 55.4 °F 53.6 °F 30.4 in West 6.8 mph 11.8 mph 92% 0 in 144.00 W/m2 unknown
13:24 55.4 °F 53.6 °F 30.4 in West 6.2 mph 11.8 mph 91% 0 in 141.00 W/m2 unknown
13:29 55.4 °F 53.6 °F 30.4 in West 6.2 mph 8.7 mph 91% 0 in 137.00 W/m2 unknown
13:34 55.4 °F 53.6 °F 30.4 in West 6.2 mph 8.7 mph 91% 0 in 132.00 W/m2 unknown
13:39 55.4 °F 53.6 °F 30.4 in West 8.1 mph 10.6 mph 91% 0 in 127.00 W/m2 unknown
13:44 55.4 °F 51.8 °F 30.4 in West 8.1 mph 10.6 mph 90% 0 in 116.00 W/m2 unknown
13:49 55.4 °F 51.8 °F 30.4 in West 6.8 mph 9.9 mph 90% 0 in 118.00 W/m2 unknown
13:54 55.4 °F 53.6 °F 30.4 in West 6.2 mph 9.3 mph 90% 0 in 118.00 W/m2 unknown
13:59 55.4 °F 53.6 °F 30.4 in West 5.6 mph 9.9 mph 90% 0 in 118.00 W/m2 unknown
14:04 55.4 °F 53.6 °F 30.4 in West 6.8 mph 10.6 mph 90% 0 in 118.00 W/m2 unknown
14:09 55.4 °F 53.6 °F 30.4 in West 5 mph 9.9 mph 90% 0 in 120.00 W/m2 unknown
14:14 55.4 °F 53.6 °F 30.4 in West 5.6 mph 8.1 mph 90% 0 in 120.00 W/m2 unknown
14:19 55.4 °F 53.6 °F 30.4 in West 6.8 mph 9.3 mph 90% 0 in 120.00 W/m2 unknown
14:24 55.4 °F 53.6 °F 30.4 in West 6.8 mph 8.7 mph 89% 0 in 118.00 W/m2 unknown
14:29 55.4 °F 53.6 °F 30.4 in West 4.3 mph 5.6 mph 92% 0 in 109.00 W/m2 unknown
14:34 55.4 °F 53.6 °F 30.4 in West 5.6 mph 6.8 mph 92% 0 in 97.00 W/m2 unknown
14:39 55.4 °F 53.6 °F 30.4 in West 5 mph 6.8 mph 89% 0 in 91.00 W/m2 unknown
14:44 55.4 °F 53.6 °F 30.4 in West 4.3 mph 6.2 mph 89% 0 in 90.00 W/m2 unknown
14:49 55.4 °F 53.6 °F 30.4 in West 3.7 mph 6.2 mph 89% 0 in 90.00 W/m2 unknown
14:54 55.4 °F 53.6 °F 30.4 in West 3.7 mph 5 mph 89% 0 in 93.00 W/m2 unknown
14:59 55.4 °F 53.6 °F 30.4 in West 3.7 mph 5 mph 90% 0 in 93.00 W/m2 unknown
15:04 55.4 °F 53.6 °F 30.4 in West 4.3 mph 5 mph 90% 0 in 77.00 W/m2 unknown
15:09 55.4 °F 53.6 °F 30.4 in West 5 mph 6.8 mph 90% 0 in 77.00 W/m2 unknown
15:14 55.4 °F 53.6 °F 30.4 in West 5 mph 6.8 mph 92% 0 in 77.00 W/m2 unknown
15:19 55.4 °F 53.6 °F 30.4 in West 5 mph 6.2 mph 92% 0 in 76.00 W/m2 unknown
15:24 55.4 °F 53.6 °F 30.4 in West 3.1 mph 5 mph 90% 0 in 70.00 W/m2 unknown
15:29 55.4 °F 53.6 °F 30.4 in WSW 2.5 mph 3.7 mph 92% 0 in 62.00 W/m2 unknown
15:34 55.4 °F 53.6 °F 30.4 in West 2.5 mph 3.7 mph 90% 0 in 56.00 W/m2 unknown
15:39 55.4 °F 53.6 °F 30.4 in West 3.1 mph 3.7 mph 90% 0 in 56.00 W/m2 unknown
15:44 55.4 °F 53.6 °F 30.4 in WSW 3.1 mph 3.7 mph 90% 0 in 54.00 W/m2 unknown
15:49 55.4 °F 53.6 °F 30.4 in West 3.7 mph 3.7 mph 90% 0 in 49.00 W/m2 unknown
15:54 55.4 °F 53.6 °F 30.4 in West 3.1 mph 3.7 mph 90% 0 in 46.00 W/m2 unknown
15:59 55.4 °F 51.8 °F 30.4 in West 1.9 mph 3.7 mph 90% 0 in 40.00 W/m2 unknown
16:04 55.4 °F 51.8 °F 30.4 in West 3.1 mph 3.7 mph 90% 0 in 37.00 W/m2 unknown
16:09 55.4 °F 51.8 °F 30.4 in West 3.1 mph 3.7 mph 90% 0 in 33.00 W/m2 unknown
16:14 55.4 °F 51.8 °F 30.4 in West 1.9 mph 3.7 mph 90% 0 in 28.00 W/m2 unknown
16:19 55.4 °F 51.8 °F 30.4 in West 1.2 mph 3.1 mph 90% 0 in 25.00 W/m2 unknown
16:24 55.4 °F 51.8 °F 30.4 in West 1.2 mph 2.5 mph 91% 0 in 21.00 W/m2 unknown
16:29 55.4 °F 51.8 °F 30.4 in West 0.6 mph 1.9 mph 91% 0 in 18.00 W/m2 unknown
16:34 53.6 °F 51.8 °F 30.4 in Calm   1.2 mph 91% 0 in 12.00 W/m2 unknown
16:39 53.6 °F 51.8 °F 30.4 in Calm     92% 0 in 9.00 W/m2 unknown
16:44 53.6 °F 51.8 °F 30.4 in Calm     92% 0 in 5.00 W/m2 unknown
16:49 53.6 °F 51.8 °F 30.4 in Calm     93% 0 in 0.00 W/m2 unknown
16:54 53.6 °F 51.8 °F 30.4 in Calm     93% 0 in 0.00 W/m2 unknown
16:59 53.6 °F 51.8 °F 30.4 in West 1.2 mph 2.5 mph 93% 0 in 0.00 W/m2 unknown
17:04 51.8 °F 50 °F 30.4 in SSW 2.5 mph 3.7 mph 93% 0 in 0.00 W/m2 unknown
17:09 51.8 °F 50 °F 30.4 in ESE 3.1 mph 3.7 mph 94% 0 in 0.00 W/m2 unknown
17:14 51.8 °F 50 °F 30.4 in ESE 3.1 mph 3.7 mph 94% 0 in 0.00 W/m2 unknown
17:19 51.8 °F 50 °F 30.4 in ESE 1.2 mph 3.1 mph 94% 0 in 0.00 W/m2 unknown
17:24 51.8 °F 50 °F 30.4 in Calm   1.2 mph 94% 0 in 0.00 W/m2 unknown
17:29 51.8 °F 50 °F 30.4 in Calm   1.2 mph 94% 0 in 0.00 W/m2 unknown
17:34 51.8 °F 50 °F 30.4 in Calm   1.2 mph 94% 0 in 0.00 W/m2 unknown
17:39 51.8 °F 50 °F 30.4 in Calm     95% 0 in 0.00 W/m2 unknown
17:44 51.8 °F 50 °F 30.4 in Calm     95% 0 in 0.00 W/m2 unknown
17:49 51.8 °F 50 °F 30.3 in Calm     95% 0 in 0.00 W/m2 unknown
17:54 51.8 °F 50 °F 30.3 in Calm     95% 0 in 0.00 W/m2 unknown
17:59 51.8 °F 50 °F 30.3 in Calm     95% 0 in 0.00 W/m2 unknown
18:04 51.8 °F 50 °F 30.3 in Calm     95% 0 in 0.00 W/m2 unknown
18:09 51.8 °F 50 °F 30.3 in Calm     95% 0 in 0.00 W/m2 unknown
18:14 50 °F 50 °F 30.3 in Calm   1.2 mph 95% 0 in 0.00 W/m2 unknown
18:19 50 °F 50 °F 30.3 in Calm   1.2 mph 95% 0 in 0.00 W/m2 unknown
18:24 50 °F 50 °F 30.3 in SSE 1.2 mph 2.5 mph 95% 0 in 0.00 W/m2 unknown
18:29 50 °F 50 °F 30.3 in SW 1.2 mph 2.5 mph 95% 0 in 0.00 W/m2 unknown
18:34 50 °F 50 °F 30.3 in SW 1.2 mph 1.9 mph 95% 0 in 0.00 W/m2 unknown
18:39 50 °F 48.2 °F 30.3 in Calm   1.2 mph 95% 0 in 0.00 W/m2 unknown
18:44 50 °F 48.2 °F 30.3 in SW 1.2 mph 2.5 mph 95% 0 in 0.00 W/m2 unknown
18:49 50 °F 48.2 °F 30.3 in SW 1.2 mph 2.5 mph 95% 0 in 0.00 W/m2 unknown
18:54 50 °F 48.2 °F 30.3 in WSW 1.9 mph 2.5 mph 95% 0 in 0.00 W/m2 unknown
18:59 50 °F 48.2 °F 30.3 in WSW 1.2 mph 2.5 mph 96% 0 in 0.00 W/m2 unknown
19:04 50 °F 48.2 °F 30.3 in Calm   1.9 mph 96% 0 in 0.00 W/m2 unknown
19:09 50 °F 48.2 °F 30.3 in WSW 1.2 mph 2.5 mph 96% 0 in 0.00 W/m2 unknown
19:14 50 °F 48.2 °F 30.3 in West 1.9 mph 2.5 mph 96% 0 in 0.00 W/m2 unknown
19:19 48.2 °F 48.2 °F 30.3 in West 1.9 mph 2.5 mph 96% 0 in 0.00 W/m2 unknown
19:24 50 °F 48.2 °F 30.3 in Calm   1.9 mph 96% 0 in 0.00 W/m2 unknown
19:29 50 °F 48.2 °F 30.3 in Calm     96% 0 in 0.00 W/m2 unknown
19:34 50 °F 48.2 °F 30.3 in West 1.9 mph 2.5 mph 96% 0 in 0.00 W/m2 unknown
19:39 50 °F 48.2 °F 30.3 in West 1.2 mph 2.5 mph 96% 0 in 0.00 W/m2 unknown
19:44 50 °F 48.2 °F 30.3 in West 1.2 mph 2.5 mph 96% 0 in 0.00 W/m2 unknown
19:49 50 °F 48.2 °F 30.3 in West 1.9 mph 3.7 mph 96% 0 in 0.00 W/m2 unknown
19:54 50 °F 48.2 °F 30.3 in West 1.9 mph 3.7 mph 96% 0 in 0.00 W/m2 unknown
19:59 50 °F 48.2 °F 30.3 in West 1.2 mph 3.1 mph 96% 0 in 0.00 W/m2 unknown
20:04 50 °F 48.2 °F 30.3 in West 0.6 mph 1.9 mph 96% 0 in 0.00 W/m2 unknown
20:09 50 °F 48.2 °F 30.3 in West 0.6 mph 1.2 mph 96% 0 in 0.00 W/m2 unknown
20:14 50 °F 48.2 °F 30.3 in Calm   1.2 mph 96% 0 in 0.00 W/m2 unknown
20:19 48.2 °F 48.2 °F 30.3 in West 0.6 mph 1.2 mph 96% 0 in 0.00 W/m2 unknown
20:24 48.2 °F 48.2 °F 30.3 in West 1.2 mph 1.2 mph 96% 0 in 0.00 W/m2 unknown
20:29 48.2 °F 48.2 °F 30.3 in Calm   1.2 mph 96% 0 in 0.00 W/m2 unknown
20:34 48.2 °F 48.2 °F 30.3 in Calm     96% 0 in 0.00 W/m2 unknown
20:39 48.2 °F 48.2 °F 30.3 in Calm     96% 0 in 0.00 W/m2 unknown
20:44 48.2 °F 48.2 °F 30.3 in Calm     96% 0 in 0.00 W/m2 unknown
20:49 48.2 °F 48.2 °F 30.3 in Calm     96% 0 in 0.00 W/m2 unknown
20:54 48.2 °F 48.2 °F 30.3 in Calm     96% 0 in 0.00 W/m2 unknown
20:59 48.2 °F 48.2 °F 30.3 in Calm     96% 0 in 0.00 W/m2 unknown
21:04 48.2 °F 48.2 °F 30.3 in Calm     96% 0 in 0.00 W/m2 unknown
21:09 48.2 °F 48.2 °F 30.3 in Calm     96% 0 in 0.00 W/m2 unknown
21:14 48.2 °F 48.2 °F 30.3 in Calm     96% 0 in 0.00 W/m2 unknown
21:19 48.2 °F 48.2 °F 30.3 in Calm     96% 0 in 0.00 W/m2 unknown
21:24 48.2 °F 48.2 °F 30.3 in Calm     96% 0 in 0.00 W/m2 unknown
21:29 48.2 °F 48.2 °F 30.3 in Calm     96% 0 in 0.00 W/m2 unknown
21:34 48.2 °F 48.2 °F 30.3 in Calm     96% 0 in 0.00 W/m2 unknown
21:39 50 °F 48.2 °F 30.3 in Calm     97% 0 in 0.00 W/m2 unknown
21:44 50 °F 48.2 °F 30.3 in Calm     97% 0 in 0.00 W/m2 unknown
21:49 50 °F 48.2 °F 30.3 in Calm     97% 0 in 0.00 W/m2 unknown
21:54 50 °F 48.2 °F 30.3 in Calm     96% 0 in 0.00 W/m2 unknown
21:59 50 °F 48.2 °F 30.3 in Calm     96% 0 in 0.00 W/m2 unknown
22:04 50 °F 48.2 °F 30.3 in Calm     96% 0 in 0.00 W/m2 unknown
22:09 50 °F 48.2 °F 30.3 in Calm     96% 0 in 0.00 W/m2 unknown
22:14 50 °F 48.2 °F 30.3 in Calm     96% 0 in 0.00 W/m2 unknown
22:19 50 °F 48.2 °F 30.3 in Calm     96% 0 in 0.00 W/m2 unknown
22:24 50 °F 48.2 °F 30.3 in Calm     96% 0 in 0.00 W/m2 unknown
22:29 50 °F 48.2 °F 30.3 in Calm     96% 0 in 0.00 W/m2 unknown
22:34 50 °F 48.2 °F 30.3 in Calm     96% 0 in 0.00 W/m2 unknown
22:39 50 °F 48.2 °F 30.3 in Calm     97% 0 in 0.00 W/m2 unknown
22:44 50 °F 48.2 °F 30.3 in Calm     97% 0 in 0.00 W/m2 unknown
22:49 50 °F 48.2 °F 30.3 in Calm     97% 0 in 0.00 W/m2 unknown
22:54 50 °F 48.2 °F 30.3 in Calm     97% 0 in 0.00 W/m2 unknown
22:59 50 °F 50 °F 30.3 in Calm     97% 0 in 0.00 W/m2 unknown
23:04 50 °F 50 °F 30.3 in Calm     97% 0 in 0.00 W/m2 unknown
23:09 50 °F 50 °F 30.3 in Calm     97% 0 in 0.00 W/m2 unknown
23:14 50 °F 48.2 °F 30.3 in Calm     97% 0 in 0.00 W/m2 unknown
23:19 50 °F 48.2 °F 30.3 in Calm     97% 0 in 0.00 W/m2 unknown
23:24 50 °F 48.2 °F 30.3 in Calm     97% 0 in 0.00 W/m2 unknown
23:29 50 °F 48.2 °F 30.3 in Calm     96% 0 in 0.00 W/m2 unknown
23:34 50 °F 48.2 °F 30.3 in NNE 2.5 mph 3.7 mph 96% 0 in 0.00 W/m2 unknown
23:39 50 °F 48.2 °F 30.3 in NNE 3.7 mph 5 mph 97% 0 in 0.00 W/m2 unknown
23:44 50 °F 48.2 °F 30.3 in NE 3.1 mph 5 mph 97% 0 in 0.00 W/m2 unknown
23:49 50 °F 48.2 °F 30.3 in NE 2.5 mph 5 mph 97% 0 in 0.00 W/m2 unknown
23:54 50 °F 48.2 °F 30.3 in NE 1.9 mph 3.7 mph 97% 0 in 0.00 W/m2 unknown
23:59 50 °F 48.2 °F 30.3 in NE 2.5 mph 3.7 mph 97% 0 in 0.00 W/m2 unknown
Stazione Meteorologica MeteoMincio Rivalta s/M (MN)
Con i complimenti di Weather Underground - 2 mb



GLOSSARIO METEOROLOGICO
Nebbia
Sospensione nell'atmosfera di piccolissime gocce d'acqua, che riduce generalmente la visibilità orizzontale sulla superficie terrestre a meno di un chilometro.
Share

Non seguire questo link o sarai bannato dal sito!